Вернуться в каталог

DELTA 1 DEB

АктивенUNKNOWN
NORAD 20349·DEBRIS·🇺🇸 United States

Запущен Jul 29, 1976 с Vandenberg Space Force Base

Loading…

Ближайшие Пролёты (ближайшие 24 часа)

TLE

СвежийSource: Space-Track

Эпоха: Sep 14, 2026, 11:41 UTC

1 20349U 76077FR  26257.48699269 -.00000459  00000-0 -74505-2 0  9993
2 20349 102.5799 351.7187 0625003  49.8871 324.9709 11.33784473565908

Отслеживайте DELTA 1 DEB в реальном времени с AllMySat

Download on the App Store